格洛纳斯-716 COSMOS 1554 [GLONASS]

导读

COSMOS 1554(宇宙1554)是苏联航天“宇宙”计划下,专为GLONASS(格洛纳斯)全球导航卫星系统打造的首批试验卫星,于1984年5月19日从拜科努尔航天发射场成功发射。它是格洛纳斯早期部署中关键的组网试验星,承担验证卫星导航系统的空间段技术、轨道运行稳定性与导航信号性能的核心任务。作为苏联全球导航系统发展进程的重要节点,它为后续格洛纳斯全星座组网和系统建成奠定了技术基础,标志着苏联推进全球卫星导航系统建设迈出扎实一步。

基本信息
目录编号:
14977
目录名称:
COSMOS 1554 (GLONASS)
国际标识:
1984-047A
轨道中心:
EARTH
卫星名称:
格洛纳斯-716
卫星全名:
格洛纳斯-716 COSMOS 1554 [GLONASS]
卫星状态:
在轨 (已飞行15455 天)
发射日期:
1984-05-19 UTC
国别 :
俄罗斯(独联体) (CIS)
星等 :
--
该卫星已列入 空间交会检测服务 Space Conjunction Data Service (SCDS) ,当前飞行风险评估等级: 无高风险
轨道信息
数据来源 国际轨道数据 AOE轨道数据
星历时间 2026-09-10T18:40:03+0800
1天前
查看轨道信息
2026-09-07T01:00:00+0800
4天前
查看轨道信息
半长轴 25508.137km 25508.137km
偏心率 0.0018949 0.0018901
轨道倾角 66.328° 66.330°
近地点辐角 214.296° 214.141°
升交点赤经 325.353° 325.475°
平近点角 151.417° 165.372°
近地点 19081.664km 19081.787km
远地点 19178.336km 19178.213km
周期 675.737分钟 675.737分钟
每日圈数 2.131006 2.131006
详细信息
平衡模式:
三轴稳定
覆盖范围:
全球
运营商:
列舍特涅夫卫星信息系统
运营商所在国:
俄罗斯
制造商(研发单位):
列舍特涅夫卫星信息系统
制造商所在国:
俄罗斯
使用方式:
暂无
卫星简介
格洛纳斯(GLONASS )是苏联/俄罗斯研制卫星导航系统。标准配置为24颗卫星,其中18颗卫星就能保证该系统为俄罗斯境内用户提供全部服务。该卫星已退役。
2D轨道图
3D轨道图
轨道高度分析图
轨道倾角分析图
轨道综合分析图
查看轨道综合分析图
与全量物体交会距离演化趋势
与全量物体交会风险概率演化趋势